| time (UTC) | temp F | wind direction | speed knots | gust knots | rain 1hr in | rain 24hr in | rain mn in | humidity % | barometer mb |
| 20260906110200 | 72 | 77 | 0.0 | 0.9 | 0.00 | 0.00 | 0.00 | 99 | 1012.7 |
| 20260906105659 | 72 | 77 | 1.7 | 1.7 | 0.00 | 0.00 | 0.00 | 99 | 1012.6 |
| 20260906105150 | 72 | 84 | 0.0 | 0.0 | 0.00 | 0.00 | 0.00 | 99 | 1012.5 |
| 20260906104649 | 72 | 84 | 0.0 | 0.0 | 0.00 | 0.00 | 0.00 | 99 | 1012.4 |
| 20260906104148 | 72 | 83 | 0.9 | 0.9 | 0.00 | 0.00 | 0.00 | 99 | 1012.4 |
| 20260906103646 | 72 | 77 | 0.0 | 0.0 | 0.00 | 0.00 | 0.00 | 99 | 1012.2 |
| 20260906103142 | 72 | 52 | 0.9 | 0.9 | 0.00 | 0.00 | 0.00 | 99 | 1012.1 |
| 20260906102637 | 72 | 59 | 0.9 | 0.9 | 0.00 | 0.00 | 0.00 | 99 | 1012.2 |
| 20260906102131 | 72 | 50 | 0.0 | 0.0 | 0.00 | 0.00 | 0.00 | 99 | 1012.3 |
| 20260906101631 | 72 | 45 | 0.9 | 0.9 | 0.00 | 0.00 | 0.00 | 99 | 1012.1 |
| 20260906101126 | 71 | 65 | 1.7 | 1.7 | 0.00 | 0.00 | 0.00 | 99 | 1012.0 |
| 20260906100621 | 71 | 62 | 1.7 | 1.7 | 0.00 | 0.00 | 0.00 | 99 | 1012.1 |
| 20260906100116 | 72 | 75 | 0.9 | 0.9 | 0.00 | 0.00 | 0.00 | 99 | 1012.0 |
| 20260906095616 | 71 | 57 | 0.9 | 0.9 | 0.00 | 0.00 | 0.00 | 99 | 1012.1 |
| 20260906095111 | 71 | 46 | 1.7 | 1.7 | 0.00 | 0.00 | 0.00 | 99 | 1012.3 |
| 20260906094610 | 71 | 64 | 0.9 | 1.7 | 0.00 | 0.00 | 0.00 | 99 | 1011.8 |
| 20260906094106 | 71 | 70 | 0.9 | 1.7 | 0.00 | 0.00 | 0.00 | 99 | 1011.9 |
| 20260906093602 | 71 | 73 | 0.9 | 0.9 | 0.00 | 0.00 | 0.00 | 99 | 1012.0 |
| 20260906093056 | 71 | 78 | 0.9 | 0.9 | 0.00 | 0.00 | 0.00 | 99 | 1012.1 |
| 20260906092552 | 71 | 79 | 0.9 | 0.9 | 0.00 | 0.00 | 0.00 | 99 | 1011.9 |
| 20260906092047 | 71 | 122 | 0.0 | 0.0 | 0.00 | 0.00 | 0.00 | 99 | 1011.9 |
| 20260906091542 | 71 | 122 | 0.0 | 0.0 | 0.00 | 0.00 | 0.00 | 99 | 1012.0 |
| 20260906091040 | 71 | 123 | 0.0 | 0.0 | 0.00 | 0.00 | 0.00 | 99 | 1011.9 |
| 20260906090539 | 71 | 123 | 0.0 | 0.0 | 0.00 | 0.00 | 0.00 | 99 | 1011.8 |
| 20260906090034 | 71 | 123 | 0.0 | 0.0 | 0.00 | 0.00 | 0.00 | 99 | 1011.8 |
| 20260906085533 | 71 | 123 | 0.0 | 0.0 | 0.00 | 0.00 | 0.00 | 99 | 1011.8 |
| 20260906085033 | 71 | 123 | 0.0 | 0.0 | 0.00 | 0.00 | 0.00 | 99 | 1011.8 |
| 20260906084527 | 71 | 123 | 0.0 | 0.0 | 0.00 | 0.00 | 0.00 | 99 | 1011.9 |
| 20260906084026 | 71 | 131 | 0.0 | 0.0 | 0.00 | 0.00 | 0.00 | 99 | 1011.8 |
| 20260906083522 | 71 | 131 | 0.0 | 0.0 | 0.00 | 0.00 | 0.00 | 99 | 1011.8 |
| 20260906083021 | 71 | 131 | 0.0 | 0.0 | 0.00 | 0.00 | 0.00 | 99 | 1011.8 |
| 20260906082516 | 71 | 131 | 0.0 | 0.0 | 0.00 | 0.00 | 0.00 | 99 | 1011.8 |
| 20260906082012 | 71 | 131 | 0.0 | 0.0 | 0.00 | 0.00 | 0.00 | 99 | 1011.8 |
| 20260906081508 | 71 | 131 | 0.0 | 0.0 | 0.00 | 0.00 | 0.00 | 99 | 1012.0 |
| 20260906081003 | 71 | 131 | 0.0 | 0.0 | 0.00 | 0.00 | 0.00 | 99 | 1011.8 |
| 20260906080500 | 72 | 133 | 0.0 | 0.0 | 0.00 | 0.00 | 0.00 | 99 | 1011.6 |
| 20260906075955 | 72 | 134 | 0.0 | 0.0 | 0.00 | 0.00 | 0.00 | 99 | 1011.9 |
| 20260906075450 | 72 | 103 | 0.0 | 0.0 | 0.00 | 0.00 | 0.00 | 99 | 1011.6 |
| 20260906074945 | 72 | 95 | 0.0 | 0.0 | 0.00 | 0.00 | 0.00 | 99 | 1011.7 |
| 20260906074444 | 72 | 95 | 0.0 | 0.0 | 0.00 | 0.00 | 0.00 | 99 | 1011.7 |
| 20260906073943 | 72 | 95 | 0.0 | 0.0 | 0.00 | 0.00 | 0.00 | 99 | 1011.7 |
| 20260906073438 | 72 | 95 | 0.0 | 0.0 | 0.00 | 0.00 | 0.00 | 99 | 1011.6 |
| 20260906072934 | 72 | 95 | 0.0 | 0.0 | 0.00 | 0.00 | 0.00 | 99 | 1011.8 |
| 20260906072429 | 72 | 95 | 0.0 | 0.9 | 0.00 | 0.00 | 0.00 | 99 | 1011.7 |
| 20260906071925 | 72 | 87 | 0.0 | 0.0 | 0.00 | 0.00 | 0.00 | 99 | 1011.6 |
| 20260906071421 | 72 | 98 | 0.0 | 0.0 | 0.00 | 0.00 | 0.00 | 99 | 1011.7 |
| 20260906070917 | 72 | 98 | 0.0 | 0.0 | 0.00 | 0.00 | 0.00 | 99 | 1011.9 |
| 20260906070413 | 72 | 97 | 0.0 | 0.0 | 0.00 | 0.00 | 0.00 | 99 | 1011.7 |
| 20260906065908 | 73 | 102 | 0.0 | 0.0 | 0.00 | 0.00 | 0.00 | 99 | 1011.9 |
| 20260906065402 | 73 | 85 | 0.0 | 0.9 | 0.00 | 0.00 | 0.00 | 99 | 1011.9 |
| 20260906064858 | 73 | 96 | 0.9 | 0.9 | 0.00 | 0.00 | 0.00 | 99 | 1012.0 |
| 20260906064355 | 73 | 75 | 0.0 | 0.9 | 0.00 | 0.00 | 0.00 | 99 | 1012.1 |
| 20260906063854 | 73 | 83 | 0.9 | 1.7 | 0.00 | 0.00 | 0.00 | 99 | 1012.0 |
| 20260906063349 | 73 | 90 | 0.9 | 0.9 | 0.00 | 0.00 | 0.00 | 99 | 1012.0 |
| 20260906062844 | 73 | 37 | 1.7 | 2.6 | 0.00 | 0.00 | 0.00 | 99 | 1012.2 |
| 20260906062343 | 73 | 91 | 0.9 | 0.9 | 0.00 | 0.00 | 0.00 | 99 | 1012.4 |
| 20260906061839 | 73 | 101 | 0.0 | 0.0 | 0.00 | 0.00 | 0.00 | 99 | 1012.2 |
| 20260906061336 | 73 | 51 | 1.7 | 1.7 | 0.00 | 0.00 | 0.00 | 99 | 1012.2 |
| 20260906060830 | 73 | 39 | 3.5 | 3.5 | 0.00 | 0.00 | 0.00 | 99 | 1012.2 |
| 20260906060328 | 72 | 125 | 0.9 | 0.9 | 0.00 | 0.00 | 0.00 | 99 | 1012.0 |
| 20260906055823 | 72 | 123 | 0.0 | 0.0 | 0.00 | 0.00 | 0.00 | 99 | 1012.0 |
| 20260906055319 | 72 | 123 | 0.0 | 0.0 | 0.00 | 0.00 | 0.00 | 99 | 1011.9 |
| 20260906054814 | 73 | 117 | 0.0 | 0.0 | 0.00 | 0.00 | 0.00 | 99 | 1012.0 |
| 20260906054309 | 73 | 117 | 0.0 | 0.0 | 0.00 | 0.00 | 0.00 | 99 | 1012.0 |
| 20260906053806 | 73 | 117 | 0.0 | 0.0 | 0.00 | 0.00 | 0.00 | 99 | 1012.1 |
| 20260906053301 | 73 | 117 | 0.0 | 0.0 | 0.00 | 0.00 | 0.00 | 99 | 1012.0 |
| 20260906052756 | 73 | 116 | 0.0 | 0.0 | 0.00 | 0.00 | 0.00 | 99 | 1012.2 |
| 20260906052252 | 73 | 122 | 0.0 | 0.0 | 0.00 | 0.00 | 0.00 | 99 | 1012.0 |
| 20260906051749 | 73 | 126 | 0.0 | 0.0 | 0.00 | 0.00 | 0.00 | 99 | 1012.1 |
| 20260906051248 | 73 | 117 | 0.0 | 0.0 | 0.00 | 0.00 | 0.00 | 99 | 1012.2 |
| 20260906050744 | 73 | 117 | 0.0 | 0.0 | 0.00 | 0.00 | 0.00 | 99 | 1012.2 |
| 20260906050239 | 73 | 117 | 0.0 | 0.9 | 0.00 | 0.00 | 0.00 | 99 | 1012.2 |
| 20260906045732 | 73 | 92 | 0.9 | 0.9 | 0.00 | 0.87 | 0.87 | 99 | 1012.2 |
| 20260906045227 | 73 | 131 | 0.0 | 0.0 | 0.00 | 0.87 | 0.87 | 99 | 1012.3 |
| 20260906044722 | 73 | 132 | 0.0 | 0.9 | 0.00 | 0.87 | 0.87 | 99 | 1012.1 |
| 20260906044217 | 73 | 133 | 0.0 | 0.0 | 0.00 | 0.87 | 0.87 | 99 | 1012.1 |
| 20260906043708 | 73 | 144 | 0.9 | 0.9 | 0.00 | 0.87 | 0.87 | 99 | 1012.2 |
| 20260906043203 | 73 | 138 | 0.9 | 0.9 | 0.00 | 0.87 | 0.87 | 99 | 1012.2 |
| 20260906042703 | 73 | 148 | 0.9 | 0.9 | 0.00 | 0.87 | 0.87 | 99 | 1012.1 |
| 20260906042156 | 73 | 153 | 1.7 | 1.7 | 0.00 | 0.87 | 0.87 | 99 | 1012.1 |
| 20260906041652 | 73 | 124 | 0.0 | 0.9 | 0.00 | 0.87 | 0.87 | 99 | 1012.2 |
| 20260906041147 | 73 | 123 | 0.0 | 0.0 | 0.00 | 0.87 | 0.87 | 99 | 1012.0 |
| 20260906040643 | 73 | 125 | 0.0 | 0.0 | 0.00 | 0.87 | 0.87 | 99 | 1012.1 |
| 20260906040138 | 73 | 131 | 0.0 | 0.0 | 0.00 | 0.87 | 0.87 | 99 | 1012.1 |
| 20260906035633 | 73 | 144 | 0.9 | 0.9 | 0.00 | 0.87 | 0.87 | 99 | 1012.0 |
| 20260906035129 | 73 | 125 | 0.9 | 0.9 | 0.00 | 0.87 | 0.87 | 99 | 1012.1 |
| 20260906034630 | 73 | 172 | 1.7 | 1.7 | 0.00 | 0.87 | 0.87 | 99 | 1011.9 |
| 20260906034124 | 73 | 156 | 0.9 | 0.9 | 0.00 | 0.87 | 0.87 | 99 | 1011.9 |
| 20260906033620 | 73 | 141 | 0.0 | 0.0 | 0.00 | 0.87 | 0.87 | 99 | 1012.1 |
| 20260906033120 | 73 | 189 | 1.7 | 1.7 | 0.00 | 0.87 | 0.87 | 99 | 1011.9 |
| 20260906032617 | 73 | 135 | 0.0 | 0.9 | 0.00 | 0.87 | 0.87 | 99 | 1011.8 |
| 20260906032116 | 73 | 153 | 1.7 | 1.7 | 0.00 | 0.87 | 0.87 | 99 | 1011.9 |
| 20260906031612 | 73 | 146 | 0.9 | 0.9 | 0.00 | 0.87 | 0.87 | 99 | 1011.9 |
| 20260906031107 | 73 | 123 | 0.0 | 0.0 | 0.00 | 0.87 | 0.87 | 99 | 1011.7 |
| 20260906030606 | 73 | 132 | 0.0 | 0.9 | 0.00 | 0.87 | 0.87 | 99 | 1011.8 |
| 20260906030101 | 72 | 124 | 0.0 | 0.0 | 0.00 | 0.87 | 0.87 | 99 | 1011.8 |
| 20260906025555 | 73 | 123 | 0.0 | 0.0 | 0.00 | 0.87 | 0.87 | 99 | 1011.4 |
| 20260906025054 | 73 | 127 | 0.0 | 0.0 | 0.00 | 0.87 | 0.87 | 99 | 1011.7 |
| 20260906024549 | 72 | 123 | 0.0 | 0.0 | 0.00 | 0.87 | 0.87 | 99 | 1011.5 |
| 20260906024043 | 72 | 125 | 0.0 | 0.0 | 0.00 | 0.87 | 0.87 | 99 | 1011.3 |
| 20260906023539 | 72 | 109 | 0.0 | 0.0 | 0.00 | 0.87 | 0.87 | 99 | 1011.0 |
| 20260906023034 | 72 | 109 | 0.0 | 0.0 | 0.00 | 0.87 | 0.87 | 99 | 1011.2 |
| 20260906022529 | 72 | 109 | 0.0 | 0.0 | 0.00 | 0.87 | 0.87 | 99 | 1010.8 |
| 20260906022024 | 72 | 109 | 0.0 | 0.0 | 0.00 | 0.87 | 0.87 | 99 | 1010.8 |
| 20260906021520 | 72 | 110 | 0.9 | 0.9 | 0.00 | 0.87 | 0.87 | 99 | 1010.7 |
| 20260906021020 | 72 | 118 | 0.0 | 0.0 | 0.00 | 0.87 | 0.87 | 99 | 1010.5 |
| 20260906020519 | 72 | 105 | 0.9 | 0.9 | 0.00 | 0.87 | 0.87 | 99 | 1010.6 |
| 20260906020019 | 72 | 105 | 0.0 | 0.0 | 0.00 | 0.87 | 0.87 | 99 | 1010.6 |
| 20260906015518 | 72 | 124 | 0.0 | 0.0 | 0.00 | 0.87 | 0.87 | 99 | 1010.6 |
| 20260906015018 | 72 | 129 | 0.0 | 0.0 | 0.00 | 0.87 | 0.87 | 99 | 1010.6 |
| 20260906014513 | 72 | 126 | 0.0 | 0.0 | 0.00 | 0.87 | 0.87 | 99 | 1010.7 |
| 20260906014009 | 72 | 136 | 0.9 | 0.9 | 0.00 | 0.87 | 0.87 | 99 | 1010.5 |
| 20260906013503 | 72 | 122 | 0.0 | 0.0 | 0.00 | 0.87 | 0.87 | 99 | 1010.6 |
| 20260906012959 | 72 | 116 | 0.0 | 0.0 | 0.00 | 0.87 | 0.87 | 99 | 1010.5 |
| 20260906012454 | 72 | 121 | 0.0 | 0.9 | 0.00 | 0.87 | 0.87 | 99 | 1010.7 |
| 20260906011953 | 72 | 83 | 0.9 | 1.7 | 0.00 | 0.87 | 0.87 | 99 | 1010.6 |
| 20260906011449 | 72 | 138 | 2.6 | 2.6 | 0.00 | 0.87 | 0.87 | 99 | 1011.0 |
| 20260906010944 | 71 | 170 | 0.9 | 0.9 | 0.05 | 0.87 | 0.87 | 99 | 1011.3 |
| 20260906010440 | 72 | 228 | 2.6 | 2.6 | 1.02 | 0.87 | 0.87 | 99 | 1011.2 |
| 20260906005936 | 72 | 148 | 1.7 | 1.7 | 1.68 | 0.86 | 0.86 | 99 | 1011.4 |
| 20260906005436 | 73 | 111 | 1.7 | 1.7 | 1.13 | 0.72 | 0.72 | 96 | 1011.8 |
| 20260906004934 | 74 | 136 | 1.7 | 1.7 | 0.42 | 0.60 | 0.60 | 97 | 1011.5 |
| 20260906004428 | 74 | 189 | 2.6 | 5.2 | 0.85 | 0.53 | 0.53 | 96 | 1011.2 |
| 20260906003924 | 74 | 164 | 7.8 | 8.7 | 1.75 | 0.53 | 0.53 | 93 | 1010.6 |
| 20260906003419 | 74 | 242 | 3.5 | 7.0 | 2.34 | 0.40 | 0.40 | 94 | 1012.2 |
| 20260906002915 | 76 | 358 | 5.2 | 7.0 | 1.16 | 0.19 | 0.19 | 88 | 1012.7 |
| 20260906002414 | 82 | 18 | 13.0 | 15.6 | 0.07 | 0.01 | 0.01 | 80 | 1012.4 |
| 20260906001915 | 83 | 7 | 7.8 | 8.7 | 0.00 | 0.00 | 0.00 | 73 | 1011.5 |
| 20260906001410 | 82 | 98 | 1.7 | 1.7 | 0.00 | 0.00 | 0.00 | 72 | 1010.8 |
| 20260906000910 | 82 | 146 | 1.7 | 1.7 | 0.00 | 0.00 | 0.00 | 73 | 1009.8 |
| 20260906000406 | 83 | 128 | 2.6 | 2.6 | 0.00 | 0.00 | 0.00 | 73 | 1010.0 |
| 20260905235900 | 83 | 147 | 0.9 | 0.9 | 0.00 | 0.00 | 0.00 | 71 | 1010.3 |
| 20260905235355 | 84 | 144 | 1.7 | 1.7 | 0.00 | 0.00 | 0.00 | 69 | 1010.6 |
| 20260905234850 | 83 | 129 | 1.7 | 1.7 | 0.00 | 0.00 | 0.00 | 70 | 1010.8 |
| 20260905234345 | 84 | 150 | 2.6 | 2.6 | 0.00 | 0.00 | 0.00 | 70 | 1010.8 |
| 20260905233840 | 84 | 134 | 1.7 | 1.7 | 0.00 | 0.00 | 0.00 | 68 | 1010.9 |
| 20260905233335 | 86 | 133 | 0.9 | 1.7 | 0.00 | 0.00 | 0.00 | 64 | 1010.9 |
| 20260905232834 | 86 | 130 | 2.6 | 2.6 | 0.00 | 0.00 | 0.00 | 64 | 1010.8 |
| 20260905232331 | 86 | 170 | 8.7 | 9.6 | 0.00 | 0.00 | 0.00 | 62 | 1010.6 |
| 20260905231826 | 87 | 156 | 1.7 | 1.7 | 0.00 | 0.00 | 0.00 | 61 | 1010.6 |
| 20260905231321 | 87 | 183 | 3.5 | 3.5 | 0.00 | 0.00 | 0.00 | 63 | 1010.2 |
| 20260905230817 | 87 | 136 | 0.0 | 0.9 | 0.00 | 0.00 | 0.00 | 62 | 1010.2 |
| 20260905230315 | 86 | 147 | 0.9 | 0.9 | 0.00 | 0.00 | 0.00 | 61 | 1010.1 |
| 20260905225815 | 86 | 144 | 1.7 | 1.7 | 0.00 | 0.00 | 0.00 | 64 | 1010.0 |
| 20260905225310 | 87 | 150 | 1.7 | 1.7 | 0.00 | 0.00 | 0.00 | 61 | 1010.2 |
| 20260905224809 | 87 | 141 | 0.9 | 1.7 | 0.00 | 0.00 | 0.00 | 62 | 1010.1 |
| 20260905224305 | 88 | 153 | 1.7 | 1.7 | 0.00 | 0.00 | 0.00 | 62 | 1010.1 |
| 20260905223800 | 89 | 166 | 1.7 | 1.7 | 0.00 | 0.00 | 0.00 | 60 | 1010.0 |
| 20260905223258 | 89 | 119 | 0.9 | 0.9 | 0.00 | 0.00 | 0.00 | 58 | 1009.8 |
| 20260905222753 | 89 | 124 | 1.7 | 1.7 | 0.00 | 0.00 | 0.00 | 58 | 1010.0 |
| 20260905222252 | 90 | 174 | 1.7 | 2.6 | 0.00 | 0.00 | 0.00 | 53 | 1010.0 |
| 20260905221748 | 90 | 117 | 2.6 | 2.6 | 0.00 | 0.00 | 0.00 | 56 | 1010.1 |
| 20260905221244 | 91 | 122 | 1.7 | 1.7 | 0.00 | 0.00 | 0.00 | 58 | 1010.2 |
| 20260905220740 | 93 | 148 | 0.9 | 0.9 | 0.00 | 0.00 | 0.00 | 53 | 1010.0 |
| 20260905220236 | 93 | 151 | 2.6 | 2.6 | 0.00 | 0.00 | 0.00 | 54 | 1010.0 |
| 20260905215735 | 92 | 127 | 1.7 | 1.7 | 0.00 | 0.00 | 0.00 | 55 | 1010.1 |
| 20260905215231 | 92 | 174 | 3.5 | 3.5 | 0.00 | 0.00 | 0.00 | 59 | 1010.2 |
| 20260905214727 | 93 | 149 | 1.7 | 1.7 | 0.00 | 0.00 | 0.00 | 66 | 1010.1 |
| 20260905214222 | 93 | 129 | 1.7 | 1.7 | 0.00 | 0.00 | 0.00 | 67 | 1010.0 |
| 20260905213717 | 94 | 149 | 0.9 | 0.9 | 0.00 | 0.00 | 0.00 | 61 | 1010.0 |
| 20260905213213 | 94 | 140 | 0.9 | 0.9 | 0.00 | 0.00 | 0.00 | 63 | 1009.9 |
| 20260905212708 | 93 | 123 | 1.7 | 1.7 | 0.00 | 0.00 | 0.00 | 61 | 1009.7 |
| 20260905212207 | 93 | 128 | 1.7 | 2.6 | 0.00 | 0.00 | 0.00 | 64 | 1009.9 |
| 20260905211702 | 93 | 105 | 0.0 | 0.0 | 0.00 | 0.00 | 0.00 | 62 | 1010.0 |
| 20260905211157 | 93 | 128 | 0.9 | 0.9 | 0.00 | 0.00 | 0.00 | 64 | 1010.2 |
| 20260905210654 | 94 | 114 | 0.0 | 0.9 | 0.00 | 0.00 | 0.00 | 60 | 1010.2 |
| 20260905210154 | 96 | 110 | 1.7 | 1.7 | 0.00 | 0.00 | 0.00 | 58 | 1010.1 |
| 20260905205653 | 98 | 97 | 0.0 | 0.0 | 0.00 | 0.00 | 0.00 | 54 | 1010.4 |
| 20260905205153 | 99 | 15 | 3.5 | 3.5 | 0.00 | 0.00 | 0.00 | 50 | 1010.3 |
| 20260905204652 | 100 | 102 | 0.9 | 1.7 | 0.00 | 0.00 | 0.00 | 48 | 1010.3 |
| 20260905204148 | 100 | 135 | 0.0 | 0.9 | 0.00 | 0.00 | 0.00 | 45 | 1010.3 |
| 20260905203642 | 103 | 115 | 2.6 | 3.5 | 0.00 | 0.00 | 0.00 | 43 | 1010.3 |
| 20260905203138 | 103 | 84 | 0.9 | 1.7 | 0.00 | 0.00 | 0.00 | 42 | 1010.5 |
| 20260905202633 | 101 | 147 | 0.9 | 0.9 | 0.00 | 0.00 | 0.00 | 44 | 1010.4 |
| 20260905202128 | 100 | 114 | 3.5 | 3.5 | 0.00 | 0.00 | 0.00 | 47 | 1010.4 |
| 20260905201624 | 100 | 118 | 2.6 | 5.2 | 0.00 | 0.00 | 0.00 | 47 | 1010.4 |
| 20260905201123 | 99 | 197 | 4.3 | 6.1 | 0.00 | 0.00 | 0.00 | 48 | 1010.5 |
| 20260905200619 | 100 | 135 | 1.7 | 2.6 | 0.00 | 0.00 | 0.00 | 48 | 1010.7 |
| 20260905200114 | 99 | 130 | 0.9 | 0.9 | 0.00 | 0.00 | 0.00 | 48 | 1010.7 |
| 20260905195607 | 100 | 131 | 3.5 | 3.5 | 0.00 | 0.00 | 0.00 | 49 | 1010.8 |
| 20260905195103 | 100 | 123 | 0.9 | 0.9 | 0.00 | 0.00 | 0.00 | 50 | 1010.8 |
| 20260905194602 | 99 | 162 | 1.7 | 2.6 | 0.00 | 0.00 | 0.00 | 52 | 1011.0 |
| 20260905194101 | 98 | 123 | 0.0 | 0.0 | 0.00 | 0.00 | 0.00 | 52 | 1010.9 |
| 20260905193557 | 99 | 5 | 3.5 | 3.5 | 0.00 | 0.00 | 0.00 | 49 | 1011.3 |
| 20260905193052 | 100 | 5 | 5.2 | 6.1 | 0.00 | 0.00 | 0.00 | 48 | 1011.2 |
| 20260905192548 | 99 | 69 | 0.9 | 1.7 | 0.00 | 0.00 | 0.00 | 49 | 1011.3 |
| 20260905192044 | 99 | 18 | 1.7 | 1.7 | 0.00 | 0.00 | 0.00 | 49 | 1011.3 |
| 20260905191542 | 99 | 258 | 2.6 | 2.6 | 0.00 | 0.00 | 0.00 | 50 | 1011.4 |
| 20260905191041 | 98 | 175 | 1.7 | 1.7 | 0.00 | 0.00 | 0.00 | 52 | 1011.5 |
| 20260905190539 | 97 | 135 | 4.3 | 5.2 | 0.00 | 0.00 | 0.00 | 52 | 1011.8 |
| 20260905190033 | 96 | 115 | 3.5 | 5.2 | 0.00 | 0.00 | 0.00 | 54 | 1011.9 |
| 20260905185533 | 97 | 138 | 6.1 | 7.0 | 0.00 | 0.00 | 0.00 | 52 | 1011.9 |
| 20260905185033 | 97 | 69 | 2.6 | 3.5 | 0.00 | 0.00 | 0.00 | 52 | 1012.0 |
| 20260905184532 | 98 | 134 | 2.6 | 3.5 | 0.00 | 0.00 | 0.00 | 52 | 1012.1 |
| 20260905184026 | 99 | 136 | 3.5 | 5.2 | 0.00 | 0.00 | 0.00 | 51 | 1012.1 |
| 20260905183525 | 98 | 240 | 4.3 | 5.2 | 0.00 | 0.00 | 0.00 | 52 | 1012.1 |
| 20260905183020 | 97 | 149 | 3.5 | 5.2 | 0.00 | 0.00 | 0.00 | 54 | 1012.3 |
| 20260905182515 | 97 | 155 | 2.6 | 2.6 | 0.00 | 0.00 | 0.00 | 53 | 1012.2 |
| 20260905182009 | 96 | 91 | 1.7 | 1.7 | 0.00 | 0.00 | 0.00 | 53 | 1012.2 |
| 20260905181504 | 96 | 105 | 0.0 | 0.9 | 0.00 | 0.00 | 0.00 | 54 | 1012.3 |
| 20260905181003 | 96 | 48 | 1.7 | 3.5 | 0.00 | 0.00 | 0.00 | 54 | 1012.4 |
| 20260905180458 | 96 | 154 | 2.6 | 2.6 | 0.00 | 0.00 | 0.00 | 55 | 1012.5 |
| 20260905175954 | 96 | 14 | 0.9 | 2.6 | 0.00 | 0.00 | 0.00 | 55 | 1012.7 |
| 20260905175453 | 96 | 97 | 3.5 | 3.5 | 0.00 | 0.00 | 0.00 | 57 | 1012.5 |
| 20260905174948 | 95 | 166 | 2.6 | 2.6 | 0.00 | 0.00 | 0.00 | 55 | 1012.7 |
| 20260905174443 | 95 | 150 | 3.5 | 3.5 | 0.00 | 0.00 | 0.00 | 57 | 1012.8 |
| 20260905173939 | 96 | 40 | 2.6 | 2.6 | 0.00 | 0.00 | 0.00 | 55 | 1012.9 |
| 20260905173435 | 95 | 32 | 2.6 | 3.5 | 0.00 | 0.00 | 0.00 | 56 | 1012.8 |
| 20260905172930 | 96 | 37 | 4.3 | 6.1 | 0.00 | 0.00 | 0.00 | 55 | 1012.8 |
| 20260905172428 | 96 | 349 | 7.0 | 8.7 | 0.00 | 0.00 | 0.00 | 55 | 1013.1 |
| 20260905171924 | 96 | 125 | 1.7 | 2.6 | 0.00 | 0.00 | 0.00 | 56 | 1013.0 |
| 20260905171421 | 95 | 105 | 0.9 | 0.9 | 0.00 | 0.00 | 0.00 | 56 | 1012.9 |
| 20260905170916 | 96 | 124 | 0.0 | 0.0 | 0.00 | 0.00 | 0.00 | 56 | 1013.2 |
| 20260905170412 | 96 | 125 | 0.0 | 0.9 | 0.00 | 0.00 | 0.00 | 56 | 1013.1 |
| 20260905165912 | 95 | 62 | 0.9 | 0.9 | 0.00 | 0.00 | 0.00 | 57 | 1013.3 |
| 20260905165407 | 95 | 188 | 0.0 | 0.9 | 0.00 | 0.00 | 0.00 | 57 | 1013.3 |
| 20260905164902 | 94 | 128 | 1.7 | 1.7 | 0.00 | 0.00 | 0.00 | 58 | 1013.3 |
| 20260905164356 | 94 | 120 | 3.5 | 3.5 | 0.00 | 0.00 | 0.00 | 59 | 1013.5 |
| 20260905163852 | 94 | 25 | 1.7 | 2.6 | 0.00 | 0.00 | 0.00 | 58 | 1013.5 |
| 20260905163348 | 95 | 132 | 3.5 | 5.2 | 0.00 | 0.00 | 0.00 | 58 | 1013.7 |
| 20260905162844 | 94 | 127 | 0.0 | 0.9 | 0.00 | 0.00 | 0.00 | 60 | 1013.5 |
| 20260905162343 | 94 | 102 | 1.7 | 1.7 | 0.00 | 0.00 | 0.00 | 59 | 1013.8 |
| 20260905161838 | 93 | 111 | 1.7 | 1.7 | 0.00 | 0.00 | 0.00 | 60 | 1013.7 |
| 20260905161338 | 94 | 259 | 2.6 | 2.6 | 0.00 | 0.00 | 0.00 | 58 | 1013.9 |
| 20260905160836 | 93 | 47 | 1.7 | 2.6 | 0.00 | 0.00 | 0.00 | 60 | 1013.9 |
| 20260905160330 | 92 | 102 | 1.7 | 1.7 | 0.00 | 0.00 | 0.00 | 61 | 1013.8 |
| 20260905155825 | 93 | 48 | 3.5 | 3.5 | 0.00 | 0.00 | 0.00 | 61 | 1013.9 |
| 20260905155324 | 93 | 357 | 2.6 | 3.5 | 0.00 | 0.00 | 0.00 | 61 | 1013.9 |
| 20260905154819 | 93 | 181 | 3.5 | 3.5 | 0.00 | 0.00 | 0.00 | 58 | 1013.9 |
| 20260905154314 | 93 | 103 | 2.6 | 5.2 | 0.00 | 0.00 | 0.00 | 60 | 1013.9 |
| 20260905153809 | 92 | 120 | 0.9 | 0.9 | 0.00 | 0.00 | 0.00 | 62 | 1013.9 |
| 20260905153307 | 92 | 121 | 1.7 | 2.6 | 0.00 | 0.00 | 0.00 | 62 | 1013.9 |
| 20260905152806 | 91 | 42 | 4.3 | 5.2 | 0.00 | 0.00 | 0.00 | 62 | 1014.1 |
| 20260905152306 | 93 | 6 | 3.5 | 5.2 | 0.00 | 0.00 | 0.00 | 60 | 1013.8 |
| 20260905151800 | 94 | 35 | 0.9 | 1.7 | 0.00 | 0.00 | 0.00 | 56 | 1013.7 |
| 20260905151256 | 94 | 47 | 1.7 | 2.6 | 0.00 | 0.00 | 0.00 | 56 | 1013.9 |
| 20260905150755 | 93 | 349 | 3.5 | 3.5 | 0.00 | 0.00 | 0.00 | 57 | 1013.9 |
| 20260905150250 | 93 | 255 | 1.7 | 1.7 | 0.00 | 0.00 | 0.00 | 58 | 1014.0 |
| 20260905145747 | 93 | 24 | 0.0 | 0.0 | 0.00 | 0.00 | 0.00 | 59 | 1013.8 |
| 20260905145242 | 92 | 36 | 0.9 | 1.7 | 0.00 | 0.00 | 0.00 | 60 | 1013.8 |
| 20260905144741 | 92 | 7 | 3.5 | 5.2 | 0.00 | 0.00 | 0.00 | 58 | 1013.9 |
| 20260905144236 | 92 | 13 | 2.6 | 3.5 | 0.00 | 0.00 | 0.00 | 60 | 1013.8 |
| 20260905143736 | 92 | 70 | 0.0 | 0.9 | 0.00 | 0.00 | 0.00 | 64 | 1013.9 |
| 20260905143235 | 91 | 98 | 0.0 | 0.9 | 0.00 | 0.00 | 0.00 | 67 | 1014.0 |
| 20260905142733 | 91 | 90 | 0.0 | 0.9 | 0.00 | 0.00 | 0.00 | 65 | 1013.9 |
| 20260905142228 | 90 | 83 | 0.0 | 0.9 | 0.00 | 0.00 | 0.00 | 67 | 1013.9 |
| 20260905141725 | 89 | 86 | 0.9 | 0.9 | 0.00 | 0.00 | 0.00 | 67 | 1014.1 |
| 20260905141220 | 88 | 117 | 0.0 | 0.0 | 0.00 | 0.00 | 0.00 | 68 | 1014.0 |
| 20260905140715 | 88 | 100 | 0.0 | 0.9 | 0.00 | 0.00 | 0.00 | 72 | 1013.9 |
| 20260905140214 | 88 | 101 | 0.9 | 0.9 | 0.00 | 0.00 | 0.00 | 74 | 1013.8 |
| 20260905135709 | 87 | 153 | 0.0 | 0.0 | 0.00 | 0.00 | 0.00 | 73 | 1013.9 |
| 20260905135205 | 86 | 174 | 2.6 | 2.6 | 0.00 | 0.00 | 0.00 | 77 | 1013.8 |
| 20260905134704 | 84 | 160 | 0.9 | 0.9 | 0.00 | 0.00 | 0.00 | 82 | 1014.1 |
| 20260905134204 | 83 | 153 | 0.9 | 0.9 | 0.00 | 0.00 | 0.00 | 85 | 1014.0 |
| 20260905133659 | 82 | 170 | 0.9 | 1.7 | 0.00 | 0.00 | 0.00 | 86 | 1014.1 |
| 20260905133154 | 82 | 160 | 0.9 | 0.9 | 0.00 | 0.00 | 0.00 | 86 | 1014.2 |
| 20260905132653 | 82 | 240 | 1.7 | 1.7 | 0.00 | 0.00 | 0.00 | 88 | 1014.1 |
| 20260905132148 | 81 | 158 | 0.9 | 0.9 | 0.00 | 0.00 | 0.00 | 91 | 1014.3 |
| 20260905131644 | 80 | 135 | 0.9 | 0.9 | 0.00 | 0.00 | 0.00 | 93 | 1014.3 |
| 20260905131143 | 79 | 143 | 0.9 | 0.9 | 0.00 | 0.00 | 0.00 | 95 | 1014.4 |
| 20260905130638 | 78 | 110 | 0.9 | 0.9 | 0.00 | 0.00 | 0.00 | 97 | 1014.3 |
| 20260905130138 | 77 | 103 | 0.9 | 0.9 | 0.00 | 0.00 | 0.00 | 99 | 1014.2 |
| 20260905125633 | 76 | 143 | 0.9 | 0.9 | 0.00 | 0.00 | 0.00 | 99 | 1014.3 |
| 20260905125128 | 76 | 149 | 0.9 | 0.9 | 0.00 | 0.00 | 0.00 | 99 | 1014.3 |
| 20260905124625 | 75 | 140 | 0.9 | 0.9 | 0.00 | 0.00 | 0.00 | 99 | 1014.3 |
| 20260905124120 | 75 | 178 | 0.9 | 0.9 | 0.00 | 0.00 | 0.00 | 99 | 1014.4 |
| 20260905123609 | 74 | 140 | 0.9 | 0.9 | 0.00 | 0.00 | 0.00 | 99 | 1014.5 |
| 20260905123106 | 74 | 141 | 0.0 | 0.0 | 0.00 | 0.00 | 0.00 | 99 | 1014.6 |
| 20260905122601 | 74 | 133 | 0.0 | 0.0 | 0.00 | 0.00 | 0.00 | 99 | 1014.4 |
| 20260905122100 | 74 | 141 | 0.0 | 0.0 | 0.00 | 0.00 | 0.00 | 99 | 1014.3 |
| 20260905121555 | 74 | 128 | 0.0 | 0.0 | 0.00 | 0.00 | 0.00 | 99 | 1014.4 |
| 20260905121050 | 74 | 103 | 0.0 | 0.0 | 0.00 | 0.00 | 0.00 | 99 | 1014.4 |
| 20260905120549 | 73 | 129 | 0.0 | 0.0 | 0.00 | 0.00 | 0.00 | 99 | 1014.1 |
| 20260905120045 | 73 | 149 | 0.9 | 0.9 | 0.00 | 0.00 | 0.00 | 99 | 1014.2 |
| 20260905115543 | 73 | 154 | 0.9 | 0.9 | 0.00 | 0.00 | 0.00 | 99 | 1013.9 |
| 20260905115038 | 73 | 137 | 0.0 | 0.9 | 0.00 | 0.00 | 0.00 | 99 | 1014.0 |
| 20260905114538 | 73 | 140 | 0.0 | 0.0 | 0.00 | 0.00 | 0.00 | 99 | 1013.9 |
| 20260905114037 | 73 | 134 | 0.0 | 0.0 | 0.00 | 0.00 | 0.00 | 99 | 1013.7 |
| 20260905113532 | 73 | 132 | 0.0 | 0.0 | 0.00 | 0.00 | 0.00 | 99 | 1013.6 |
| 20260905113027 | 73 | 157 | 0.9 | 1.7 | 0.00 | 0.00 | 0.00 | 99 | 1013.5 |
| 20260905112523 | 73 | 138 | 0.0 | 0.0 | 0.00 | 0.00 | 0.00 | 99 | 1013.6 |
| 20260905112019 | 73 | 134 | 0.0 | 0.0 | 0.00 | 0.00 | 0.00 | 99 | 1013.5 |
| 20260905111519 | 73 | 134 | 0.0 | 0.0 | 0.00 | 0.00 | 0.00 | 99 | 1013.6 |
| 20260905111018 | 73 | 148 | 0.9 | 0.9 | 0.00 | 0.00 | 0.00 | 99 | 1013.3 |
| 20260905110517 | 73 | 140 | 0.0 | 0.0 | 0.00 | 0.00 | 0.00 | 99 | 1013.3 |